Location: Waco, TX
(31.5480°N, 97.1670°W)
Time: 15:06:53
(UTC-05:00)

ISS - Pass Details

Date: 17 September 2019
Orbit: 411 x 421 km, 51.6° (Epoch: 17 September)

Event Time Altitude Azimuth Distance (km) Brightness Sun altitude
Rises 19:42:02 0° 180° (S) 2,326 0.0 -3.0°
Reaches altitude 10° 19:45:25 10° 143° (SE) 1,469 -1.4 -3.7°
Maximum altitude 19:46:24 11° 125° (SE) 1,409 -1.6 -3.9°
Drops below altitude 10° 19:47:23 10° 108° (ESE) 1,471 -1.6 -4.1°
Enters shadow 19:49:14 - 83° (E) 1,858 -1.1 -4.5°
Sets 19:50:47 0° 70° (ENE) 2,337 - -4.8°
